Date String (YYYY-MM-DD hh:mm:ss) UTC,Instrument flags,absolute air pressure of the measurement (hPa),sample flow rate (lpm),inlet stack bypass flow (lpm),air temperature of the measurement (°C),ambient temperature measured by the external sensor (°C),aerosol sample conditioner tube jacket temperature (°C),OPC LED temperature (°C),internal box temperature (°C),relative humidity of the measurement (%),span deviation,mass concentration of particles derived from Lorenz-Mie calculation of OPC scattering (μg/m³),mass concentration of particles derived from Lorenz-Mie calculation of OPC scattering (μg/m³),mass concentration of particles derived from Lorenz-Mie calculation of OPC scattering (μg/m³)
DateTimeUTC,F1_M11,P_M11,Q1_M11,Q2_M11,T1_M11,T2_M11,T3_M11,T4_M11,T5_M11,U1_M11,ZSPAN_M11,X0_M11,X2_M11,X1_M11
2023-10-21 01:00:00,SystemResetWarning,0830.5,5.00,000.00,028.0,026.8,000.0,036.4,029.9,9.4,0000.0,0013.92,0003.24,0001.20
2023-10-21 01:01:00,SystemResetWarning,0830.5,5.00,000.00,028.1,026.9,000.0,036.4,029.9,9.0,0000.0,0013.74,0003.23,0001.19
2023-10-21 01:02:00,SystemResetWarning,0830.6,5.00,000.00,028.1,027.1,000.0,036.5,030.0,8.9,0000.0,0013.53,0003.21,0001.17
2023-10-21 01:03:00,SystemResetWarning,0830.4,5.00,000.00,028.2,027.2,000.0,036.5,030.1,8.9,0000.0,0013.35,0003.22,0001.15
2023-10-21 01:04:00,SystemResetWarning,0830.4,5.00,000.00,028.3,027.1,000.0,036.5,030.1,8.8,0000.0,0013.47,0003.23,0001.14
2023-10-21 01:05:00,SystemResetWarning,0830.5,4.98,000.00,028.2,025.5,000.0,036.5,030.0,8.8,0000.0,0013.32,0003.15,0001.11
2023-10-21 01:06:00,SystemResetWarning,0830.6,5.02,000.00,028.2,024.6,000.0,036.4,029.8,8.8,0000.0,0014.27,0003.01,0001.09
2023-10-21 01:07:00,SystemResetWarning,0830.5,5.00,000.00,028.1,024.7,000.0,036.4,029.7,8.8,0000.0,0014.89,0002.94,0001.06
2023-10-21 01:08:00,SystemResetWarning,0830.5,5.00,000.00,028.0,025.0,000.0,036.4,029.6,8.8,0000.0,0013.95,0002.87,0001.01
2023-10-21 01:09:00,SystemResetWarning,0830.5,5.00,000.00,028.0,025.4,000.0,036.5,029.7,8.9,0000.0,0013.81,0002.80,0000.98
2023-10-21 01:10:00,SystemResetWarning,0830.6,5.00,000.00,028.0,025.8,000.0,036.5,029.7,8.9,0000.0,0012.27,0002.69,0000.95
2023-10-21 01:11:00,SystemResetWarning,0830.5,5.01,000.00,028.1,026.1,000.0,036.5,029.8,9.0,0000.0,0012.10,0002.70,0000.93
2023-10-21 01:12:00,SystemResetWarning,0830.6,5.00,000.00,028.1,026.4,000.0,036.5,029.9,9.0,0000.0,0012.13,0002.65,0000.90
2023-10-21 01:13:00,SystemResetWarning,0830.6,5.00,000.00,028.1,026.7,000.0,036.5,029.9,9.1,0000.0,0012.40,0002.68,0000.89
2023-10-21 01:14:00,SystemResetWarning,0830.7,5.00,000.00,028.2,026.9,000.0,036.5,030.0,9.1,0000.0,0012.62,0002.72,0000.89
2023-10-21 01:15:00,SystemResetWarning,0830.7,5.00,000.00,028.2,027.0,000.0,036.6,030.1,9.1,0000.0,0013.27,0002.72,0000.89
2023-10-21 01:16:00,SystemResetWarning,0830.9,5.00,000.00,028.3,027.1,000.0,036.6,030.1,9.0,0000.0,0014.02,0002.79,0000.90
2023-10-21 01:17:00,SystemResetWarning,0830.9,4.98,000.00,028.3,025.9,000.0,036.6,030.0,9.1,0000.0,0013.65,0002.88,0000.91
2023-10-21 01:18:00,SystemResetWarning,0830.9,5.01,000.00,028.2,024.6,000.0,036.5,029.8,9.1,0000.0,0013.15,0002.94,0000.92
2023-10-21 01:19:00,SystemResetWarning,0830.9,5.02,000.00,028.1,024.6,000.0,036.5,029.7,9.5,0000.0,0012.74,0002.85,0000.92
2023-10-21 01:20:00,SystemResetWarning,0830.9,5.00,000.00,028.1,024.8,000.0,036.5,029.6,9.6,0000.0,0012.76,0002.79,0000.92
2023-10-21 01:21:00,SystemResetWarning,0830.9,5.00,000.00,028.0,025.2,000.0,036.5,029.6,9.4,0000.0,0013.34,0002.87,0000.93
2023-10-21 01:22:00,SystemResetWarning,0830.9,5.00,000.00,028.0,025.6,000.0,036.5,029.7,9.6,0000.0,0013.86,0002.82,0000.92
2023-10-21 01:23:00,SystemResetWarning,0830.9,4.99,000.00,028.1,026.0,000.0,036.5,029.8,9.5,0000.0,0013.93,0002.82,0000.94
2023-10-21 01:24:00,SystemResetWarning,0831.0,4.99,000.00,028.1,026.3,000.0,036.5,029.8,9.6,0000.0,0015.68,0002.90,0000.96
2023-10-21 01:25:00,SystemResetWarning,0831.0,5.00,000.00,028.1,026.6,000.0,036.5,029.9,9.8,0000.0,0016.28,0002.96,0000.95
2023-10-21 01:26:00,SystemResetWarning,0831.1,5.01,000.00,028.2,026.8,000.0,036.5,030.0,9.7,0000.0,0016.23,0002.97,0000.94
2023-10-21 01:27:00,SystemResetWarning,0831.1,5.00,000.00,028.2,027.0,000.0,036.6,030.0,9.8,0000.0,0015.79,0002.99,0000.94
2023-10-21 01:28:00,SystemResetWarning,0831.2,4.99,000.00,028.3,027.2,000.0,036.6,030.1,10.0,0000.0,0015.81,0002.96,0000.93
2023-10-21 01:29:00,SystemResetWarning,0831.1,4.99,000.00,028.3,027.2,000.0,036.6,030.2,10.0,0000.0,0016.70,0002.97,0000.92
2023-10-21 01:30:00,SystemResetWarning,0831.1,5.00,000.00,028.3,025.7,000.0,036.6,030.0,10.0,0000.0,0016.81,0003.03,0000.93
2023-10-21 01:31:00,SystemResetWarning,0831.1,5.00,000.00,028.2,024.7,000.0,036.5,029.9,10.1,0000.0,0017.99,0003.17,0000.95
2023-10-21 01:32:00,SystemResetWarning,0831.1,5.01,000.00,028.2,024.7,000.0,036.5,029.7,10.2,0000.0,0018.32,0003.21,0000.96
2023-10-21 01:33:00,SystemResetWarning,0831.1,5.01,000.00,028.1,025.0,000.0,036.5,029.6,10.4,0000.0,0017.87,0003.22,0000.97
2023-10-21 01:34:00,SystemResetWarning,0831.1,4.99,000.00,028.1,025.4,000.0,036.5,029.7,10.3,0000.0,0018.46,0003.27,0000.99
2023-10-21 01:35:00,SystemResetWarning,0831.1,5.00,000.00,028.1,025.8,000.0,036.5,029.7,10.3,0000.0,0017.14,0003.25,0001.01
2023-10-21 01:36:00,SystemResetWarning,0831.1,5.01,000.00,028.1,026.1,000.0,036.5,029.8,10.4,0000.0,0015.95,0003.23,0001.02
2023-10-21 01:37:00,SystemResetWarning,0831.2,5.01,000.00,028.1,026.4,000.0,036.6,029.9,10.4,0000.0,0015.67,0003.20,0001.03
2023-10-21 01:38:00,SystemResetWarning,0831.2,5.00,000.00,028.2,026.7,000.0,036.6,030.0,10.4,0000.0,0015.91,0003.22,0001.03
2023-10-21 01:39:00,SystemResetWarning,0831.2,5.00,000.00,028.2,026.9,000.0,036.6,030.0,10.4,0000.0,0016.12,0003.25,0001.03
2023-10-21 01:40:00,SystemResetWarning,0831.2,5.01,000.00,028.3,027.1,000.0,036.6,030.1,10.5,0000.0,0014.64,0003.27,0001.02
2023-10-21 01:41:00,SystemResetWarning,0831.2,5.00,000.00,028.3,027.2,000.0,036.6,030.1,10.4,0000.0,0014.47,0003.26,0001.02
2023-10-21 01:42:00,SystemResetWarning,0831.2,4.98,000.00,028.3,026.1,000.0,036.6,030.1,10.3,0000.0,0013.59,0003.17,0001.01
2023-10-21 01:43:00,SystemResetWarning,0831.2,5.01,000.00,028.3,024.7,000.0,036.5,029.9,10.4,0000.0,0011.67,0003.05,0001.01
2023-10-21 01:44:00,SystemResetWarning,0831.2,5.01,000.00,028.2,024.6,000.0,036.5,029.8,10.6,0000.0,0011.61,0002.95,0001.02
2023-10-21 01:45:00,SystemResetWarning,0831.2,5.00,000.00,028.1,024.9,000.0,036.5,029.6,10.7,0000.0,0011.35,0002.87,0001.00
2023-10-21 01:46:00,SystemResetWarning,0831.2,5.00,000.00,028.1,025.3,000.0,036.5,029.7,10.8,0000.0,0012.41,0002.88,0000.98
2023-10-21 01:47:00,SystemResetWarning,0831.2,5.00,000.00,028.1,025.7,000.0,036.6,029.7,10.8,0000.0,0012.93,0002.84,0000.96
2023-10-21 01:48:00,SystemResetWarning,0831.2,4.99,000.00,028.1,026.0,000.0,036.6,029.8,10.6,0000.0,0012.73,0002.74,0000.95
2023-10-21 01:49:00,SystemResetWarning,0831.2,5.00,000.00,028.1,026.3,000.0,036.6,029.9,10.5,0000.0,0012.83,0002.63,0000.94
2023-10-21 01:50:00,SystemResetWarning,0831.2,5.00,000.00,028.2,026.6,000.0,036.6,030.0,10.7,0000.0,0013.13,0002.52,0000.94
2023-10-21 01:51:00,SystemResetWarning,0831.2,5.01,000.00,028.2,026.8,000.0,036.6,030.0,10.7,0000.0,0013.51,0002.48,0000.95
2023-10-21 01:52:00,SystemResetWarning,0831.2,5.00,000.00,028.2,027.0,000.0,036.6,030.1,10.8,0000.0,0013.72,0002.43,0000.97
2023-10-21 01:53:00,SystemResetWarning,0831.2,5.00,000.00,028.3,027.2,000.0,036.6,030.1,10.8,0000.0,0014.30,0002.44,0000.99
2023-10-21 01:54:00,SystemResetWarning,0831.2,4.99,000.00,028.3,027.2,000.0,036.7,030.2,10.8,0000.0,0014.85,0002.49,0000.99
2023-10-21 01:55:00,SystemResetWarning,0831.2,4.99,000.00,028.3,025.7,000.0,036.6,030.1,10.5,0000.0,0014.89,0002.49,0000.99
2023-10-21 01:56:00,SystemResetWarning,0831.3,5.02,000.00,028.3,024.6,000.0,036.6,029.9,10.3,0000.0,0014.54,0002.52,0001.00
2023-10-21 01:57:00,SystemResetWarning,0831.2,5.00,000.00,028.2,024.7,000.0,036.5,029.7,10.5,0000.0,0013.94,0002.50,0000.99
2023-10-21 01:58:00,SystemResetWarning,0831.2,5.00,000.00,028.1,025.0,000.0,036.6,029.6,10.4,0000.0,0014.79,0002.55,0000.99
2023-10-21 01:59:00,SystemResetWarning,0831.2,5.01,000.00,028.1,025.3,000.0,036.6,029.7,10.4,0000.0,0015.80,0002.61,0000.99
